Tracking 18816 objects as of 18-October-2017
HD Live streaming from Space Station
objects crossing your sky now

RIGIDSPHERE 2 (LCS 4)

Track RIGIDSPHERE 2 (LCS 4) now!
10-day predictions
RIGIDSPHERE 2 (LCS 4) is classified as:


NORAD ID: 5398
Int'l Code: 1971-067E
Perigee: 742.7 km
Apogee: 830.9 km
Inclination: 87.6 °
Period: 100.4 minutes
Semi major axis: 7157 km
RCS: 0.9311 m2 (medium)
Launch date: August 7, 1971
Source: United States (US)
Launch site: AIR FORCE WESTERN TEST RANGE (AFWTR)
aabbcc
Your satellite tracking list
Your tracking list is empty





NASA's NSSDC Master Catalog

Two Line Element Set (TLE):
1  5398U 71067E   17290.59146770 +.00000205 +00000-0 +66288-4 0  9995
2  5398 087.6208 132.7625 0061630 242.1215 117.3730 14.33624553420102
Source of the keplerian elements: AFSPC